DW4678 Weather Reports


time (UTC)temp
C
wind
direction
speed
KPH
gust
KPH
rain 1hr
cm
rain 24hr
cm
rain mn
cm
humidity
%
barometer
mb
20200531074646 16 324 17.7 0.0 0.00 0.00 0.00 70 1011.4
20200531073138 17 7 16.1 0.0 0.00 0.00 0.00 70 1011.2
20200531071611 17 348 17.7 0.0 0.00 0.00 0.00 70 1011.3
20200531070043 17 310 17.7 0.0 0.00 0.00 0.00 70 1011.3
20200531064603 17 337 19.3 0.0 0.00 0.00 0.00 68 1011.2
20200531063037 17 316 17.7 0.0 0.00 0.00 0.00 69 1010.9
20200531061515 17 344 17.7 0.0 0.00 0.00 0.00 71 1010.9
20200531054647 17 311 16.1 0.0 0.00 0.00 0.00 72 1010.6
20200531053105 17 335 17.7 0.0 0.00 0.00 0.00 72 1010.8
20200531051618 17 320 17.7 0.0 0.00 0.00 0.00 72 1010.8
20200531050114 18 324 19.3 0.0 0.00 0.00 0.00 73 1010.9
20200531044516 18 308 20.9 0.0 0.00 0.00 0.00 75 1011.0
20200531043010 18 302 29.0 0.0 0.00 0.00 0.00 78 1010.8
20200531041712 16 273 20.9 0.0 0.00 0.00 0.00 82 1010.8
20200531040108 16 275 17.7 0.0 0.00 0.00 0.28 82 1010.8
20200531034613 16 273 17.7 0.0 0.00 0.00 0.28 82 1010.8
20200531033113 16 262 19.3 0.0 0.00 0.00 0.28 82 1010.9
20200531031534 16 268 16.1 0.0 0.00 0.00 0.28 82 1010.8
20200531030021 17 275 14.5 0.0 0.00 0.00 0.28 82 1010.9
20200531023156 17 273 20.9 0.0 0.00 0.00 0.28 82 1011.0
20200531021608 16 275 16.1 0.0 0.00 0.00 0.28 81 1011.0
20200531020106 16 266 16.1 0.0 0.00 0.00 0.28 80 1011.0
20200531014610 16 264 17.7 0.0 0.00 0.00 0.28 80 1010.9
20200531013031 16 264 17.7 0.0 0.00 0.00 0.28 81 1010.8
20200531011514 16 263 20.9 0.0 0.00 0.00 0.28 81 1010.8
20200531003117 16 249 25.7 0.0 0.00 0.00 0.28 80 1010.8
20200531001733 16 258 25.7 0.0 0.00 0.00 0.28 79 1010.7
20200531000110 16 253 25.7 0.0 0.00 0.00 0.28 79 1010.7
20200530234624 16 245 25.7 0.0 0.00 0.00 0.28 77 1010.7
20200530233102 16 251 25.7 0.0 0.00 0.00 0.28 75 1010.6
20200530231611 16 235 29.0 0.0 0.00 0.00 0.28 76 1010.4
20200530230057 16 239 27.4 0.0 0.00 0.00 0.28 75 1010.6
20200530224520 16 242 24.1 0.0 0.00 0.00 0.28 71 1010.5
20200530223016 16 234 22.5 0.0 0.00 0.00 0.28 66 1010.4
20200530221508 16 228 20.9 0.0 0.00 0.00 0.28 64 1010.2
20200530214628 16 218 24.1 0.0 0.00 0.00 0.28 62 1010.4
20200530213144 16 228 24.1 0.0 0.00 0.00 0.28 60 1010.2
20200530211624 16 231 24.1 0.0 0.00 0.00 0.28 57 1010.4
20200530210109 15 216 24.1 0.0 0.00 0.00 0.28 56 1010.3
20200530204638 15 220 27.4 0.0 0.00 0.00 0.28 55 1010.3
20200530203034 15 218 27.4 0.0 0.00 0.00 0.28 54 1010.4
20200530200142 15 231 16.1 0.0 0.00 0.00 0.28 54 1010.2
20200530194622 15 225 17.7 0.0 0.00 0.00 0.28 55 1010.2
20200530193123 14 226 20.9 0.0 0.00 0.00 0.28 55 1010.3
20200530191608 14 225 30.6 0.0 0.00 0.00 0.28 55 1010.1
20200530190029 15 223 24.1 0.0 0.00 0.00 0.28 55 1010.1
20200530184510 15 214 24.1 0.0 0.00 0.00 0.28 56 1010.1
20200530183139 15 209 29.0 0.0 0.00 0.00 0.28 56 1010.1
20200530181628 15 211 29.0 0.0 0.00 0.00 0.28 57 1010.1
20200530180306 15 216 30.6 0.0 0.00 0.00 0.28 57 1010.2
20200530174631 15 218 32.2 0.0 0.00 0.00 0.28 57 1010.2
20200530173123 15 217 27.4 0.0 0.00 0.00 0.28 57 1010.3
20200530171641 15 211 30.6 0.0 0.00 0.00 0.28 58 1010.4
20200530170053 15 223 29.0 0.0 0.00 0.00 0.28 58 1010.5
20200530164617 15 226 29.0 0.0 0.00 0.00 0.28 58 1010.6
20200530163110 14 215 25.7 0.0 0.00 0.00 0.28 58 1010.6
20200530161518 14 238 24.1 0.0 0.00 0.00 0.28 59 1010.8
20200530160045 14 233 24.1 0.0 0.00 0.00 0.28 59 1011.0
20200530154544 14 233 25.7 0.0 0.00 0.00 0.28 59 1011.2
20200530153017 14 224 22.5 0.0 0.00 0.00 0.28 59 1011.2
20200530151527 14 215 24.1 0.0 0.00 0.00 0.28 59 1011.2
20200530144651 14 212 27.4 0.0 0.00 0.00 0.28 59 1011.5
20200530143221 14 217 25.7 0.0 0.00 0.00 0.28 59 1011.5
20200530141708 14 223 22.5 0.0 0.00 0.00 0.28 59 1011.5
20200530140130 14 229 20.9 0.0 0.00 0.00 0.28 59 1011.7
20200530134655 14 239 20.9 0.0 0.00 0.00 0.28 59 1011.4
20200530133120 14 239 20.9 0.0 0.00 0.00 0.28 59 1011.6
20200530131623 14 239 20.9 0.0 0.00 0.00 0.28 59 1011.7
20200530130106 14 237 20.9 0.0 0.00 0.00 0.28 58 1011.7
20200530124645 14 254 22.5 0.0 0.00 0.00 0.28 58 1011.7
20200530123052 14 255 22.5 0.0 0.00 0.00 0.25 58 1011.8
20200530121537 14 247 24.1 0.0 0.00 0.00 0.25 58 1011.6
20200530120018 14 243 27.4 0.0 0.00 0.00 0.25 58 1011.5
20200530114517 14 248 30.6 0.0 0.00 0.00 0.25 58 1011.5
20200530110251 14 238 30.6 0.0 0.00 0.00 0.25 58 1011.3
20200530104628 14 234 29.0 0.0 0.00 0.00 0.25 58 1011.4
20200530103113 14 227 29.0 0.0 0.00 0.00 0.25 58 1011.2
20200530101705 14 214 27.4 0.0 0.00 0.00 0.25 58 1011.3
20200530100232 14 224 24.1 0.0 0.00 0.00 0.25 58 1011.4
20200530094527 14 225 24.1 0.0 0.00 0.00 0.25 57 1011.3
20200530091527 15 231 22.5 0.0 0.00 0.00 0.25 57 1011.5
20200530090024 15 250 22.5 0.0 0.00 0.00 0.25 57 1011.8
20200530083215 15 240 17.7 0.0 0.00 0.00 0.25 57 1011.8
20200530081558 15 243 20.9 0.0 0.00 0.00 0.23 57 1011.8
20200530080035 15 244 19.3 0.0 0.00 0.00 0.23 57 1012.1